Virtual Norwegian is not affiliated with Norwegian Air Shuttle in any way.
If you are looking for the real "Norwegian", or you wish to book Norwegian flights, please visit Norwegian.com


We use cookies to ensure you get the best experience on our website.   ACCEPT

ENGM - OSL - Oslo (Gardermoen)

General Info Alternate Airport
ICAO: ENGM Elevation: 681 ft ICAO: ENTO
IATA: OSL Country: Norway IATA: TRF
City: Oslo Charts: Log in to view charts City: Sandefjord
Name: Gardermoen Hub: Yes Name Torp
General Info
ICAO: ENGM
IATA: OSL
City: Oslo
Name: Gardermoen
Elevation: 681 ft
Country: Norway
Charts: Log in to view charts
Hub: Yes
 
Alternate Airport
ICAO: ENTO
IATA: TRF
City: Sandefjord
Name: Torp

Weather
180550Z 22003KT 2000 0900S R19R/P2000N R01R/1300D R19L/P2000N R01L/1100D PRFG BR SCT002 BKN007 06/06 Q1006 TEMPO 0800 FG VV002
Weather
180550Z 22003KT 2000 0900S R19R/P2000N R01R/1300D R19L/P2000N R01L/1100D PRFG BR SCT002 BKN007 06/06 Q1006 TEMPO 0800 FG VV002

Runway Info
01L
Length ILS/LOC Course
3600 m 110.30 013
01R
Length ILS/LOC Course
2950 m 111.95 013
19L
Length ILS/LOC Course
2950 m 110.55 193
19R
Length ILS/LOC Course
3600 m 111.30 193

NOTAMs
NOTAMs currently unavailable.
NOTAMs
NOTAMs currently unavailable

Route map
Airport
Airport (hub)